When you browse on this site, cookies collect data to enhance your experience and personalize the content and advertising you see.
Visit our Privacy Policy to learn more. By continuing to use the site, you agree to this use of cookies and data.
  • In Italy
  • List of Countries
  • For 7 days
  • Water Temperature
  • Satellite Maps
  • Weather Map
  • Weather Widgets
  • user-avatar
    Login

    Hourly Weather Yulara

    Today, 10 December, Monday

    Time Temperature Precipitation Wind Pressure Humidity
    00:00 +31°C° 0 mm 10 mps 717 mmHg 37%
    01:00 +31°C° 0 mm 10 mps 717 mmHg 37%
    02:00 +29°C° 0 mm 9 mps 717 mmHg 38%
    03:00 +29°C° 0 mm 9 mps 717 mmHg 40%
    04:00 +29°C° 0 mm 8 mps 717 mmHg 40%
    05:00 +28°C° 0 mm 8 mps 717 mmHg 41%
    06:00 +28°C° 0 mm 7 mps 717 mmHg 41%
    07:00 +31°C° 0 mm 8 mps 718 mmHg 37%
    08:00 +32°C° 0 mm 8 mps 718 mmHg 34%
    09:00 +33°C° 0 mm 10 mps 718 mmHg 34%
    10:00 +35°C° 0 mm 9 mps 718 mmHg 30%
    11:00 +37°C° 0 mm 8 mps 718 mmHg 25%
    12:00 +39°C° 0 mm 7 mps 718 mmHg 20%
    13:00 +40°C° 0 mm 7 mps 717 mmHg 19%
    14:00 +41°C° 0 mm 6 mps 716 mmHg 18%
    15:00 +41°C° 0 mm 6 mps 716 mmHg 17%
    16:00 +41°C° 0 mm 5 mps 716 mmHg 17%
    17:00 +41°C° 0 mm 5 mps 715 mmHg 17%
    18:00 +41°C° 0 mm 5 mps 715 mmHg 17%
    19:00 +39°C° 0 mm 6 mps 716 mmHg 19%
    20:00 +38°C° 0 mm 7 mps 716 mmHg 21%
    21:00 +36°C° 0 mm 7 mps 716 mmHg 23%
    22:00 +35°C° 0 mm 7 mps 716 mmHg 25%
    23:00 +34°C° 0 mm 7 mps 716 mmHg 26%

    Tomorrow, 11 December, Tuesday

    Time Temperature Precipitation Wind Pressure Humidity
    00:00 +34°C° 0 mm 7 mps 716 mmHg 28%
    01:00 +33°C° 0 mm 6 mps 715 mmHg 29%
    02:00 +32°C° 0 mm 6 mps 715 mmHg 31%
    03:00 +32°C° 0 mm 6 mps 714 mmHg 32%
    04:00 +30°C° 0 mm 5 mps 715 mmHg 32%
    05:00 +30°C° 0 mm 5 mps 715 mmHg 33%
    06:00 +30°C° 0 mm 5 mps 715 mmHg 34%
    07:00 +33°C° 0 mm 6 mps 715 mmHg 29%
    08:00 +35°C° 0 mm 7 mps 715 mmHg 25%
    09:00 +38°C° 0 mm 8 mps 716 mmHg 20%
    10:00 +40°C° 0 mm 7 mps 715 mmHg 18%
    11:00 +42°C° 0 mm 6 mps 715 mmHg 15%
    12:00 +44°C° 0 mm 6 mps 714 mmHg 13%
    13:00 +44°C° 0 mm 4 mps 714 mmHg 12%
    14:00 +43°C° 0 mm 2 mps 713 mmHg 11%
    15:00 +43°C° 0 mm 1 mps 713 mmHg 11%
    16:00 +43°C° 0 mm 1 mps 712 mmHg 11%
    17:00 +43°C° 0 mm 1 mps 712 mmHg 11%
    18:00 +43°C° 0 mm 2 mps 712 mmHg 11%
    19:00 +43°C° 0 mm 3 mps 712 mmHg 13%
    20:00 +42°C° 0 mm 4 mps 713 mmHg 14%
    21:00 +41°C° 0 mm 5 mps 713 mmHg 15%
    22:00 +40°C° 0 mm 6 mps 713 mmHg 17%
    23:00 +39°C° 0 mm 6 mps 713 mmHg 19%

    Day after tomorrow, 12 December, Wednesday

    Time Temperature Precipitation Wind Pressure Humidity
    00:00 +38°C° 0 mm 6 mps 713 mmHg 20%
    01:00 +36°C° 0 mm 6 mps 712 mmHg 22%
    02:00 +35°C° 0 mm 7 mps 712 mmHg 24%
    03:00 +35°C° 0 mm 7 mps 711 mmHg 26%
    04:00 +34°C° 0 mm 8 mps 712 mmHg 27%
    05:00 +34°C° 0 mm 8 mps 712 mmHg 28%
    06:00 +33°C° 0 mm 8 mps 712 mmHg 29%
    07:00 +34°C° 0 mm 8 mps 713 mmHg 27%
    08:00 +35°C° 0 mm 8 mps 713 mmHg 26%
    09:00 +36°C° 0 mm 7 mps 714 mmHg 24%
    10:00 +39°C° 0 mm 7 mps 713 mmHg 21%
    11:00 +41°C° 0 mm 7 mps 713 mmHg 19%
    12:00 +44°C° 0 mm 7 mps 713 mmHg 16%
    13:00 +44°C° 0 mm 6 mps 713 mmHg 15%
    14:00 +45°C° 0 mm 5 mps 712 mmHg 14%
    15:00 +44°C° 0 mm 4 mps 711 mmHg 13%
    16:00 +45°C° 0 mm 6 mps 711 mmHg 14%
    17:00 +44°C° 0 mm 7 mps 711 mmHg 15%
    18:00 +44°C° 0 mm 8 mps 711 mmHg 16%
    19:00 +41°C° 0 mm 8 mps 712 mmHg 18%
    20:00 +40°C° 0 mm 8 mps 712 mmHg 20%
    21:00 +38°C° 0 mm 8 mps 712 mmHg 22%
    22:00 +37°C° 0 mm 8 mps 713 mmHg 24%
    23:00 +35°C° 0 mm 8 mps 713 mmHg 27%

    13 December, Thursday

    Time Temperature Precipitation Wind Pressure Humidity
    00:00 +34°C° 0 mm 8 mps 713 mmHg 30%
    01:00 +33°C° 0.2 mm 9 mps 714 mmHg 35%
    02:00 +31°C° 0.2 mm 10 mps 714 mmHg 40%
    03:00 +29°C° 0.2 mm 11 mps 714 mmHg 46%
    04:00 +27°C° 0.3 mm 11 mps 715 mmHg 47%
    05:00 +26°C° 0.3 mm 10 mps 715 mmHg 47%
    06:00 +24°C° 0.3 mm 10 mps 716 mmHg 48%
    07:00 +27°C° 0 mm 10 mps 716 mmHg 42%
    08:00 +28°C° 0 mm 10 mps 717 mmHg 36%
    09:00 +29°C° 0 mm 9 mps 717 mmHg 31%
    10:00 +32°C° 0 mm 9 mps 717 mmHg 28%
    11:00 +34°C° 0 mm 8 mps 716 mmHg 26%
    12:00 +36°C° 0 mm 7 mps 716 mmHg 23%
    13:00 +36°C° 0 mm 7 mps 715 mmHg 22%
    14:00 +38°C° 0 mm 6 mps 715 mmHg 22%
    15:00 +39°C° 0 mm 6 mps 714 mmHg 21%
    16:00 +38°C° 0 mm 6 mps 714 mmHg 21%
    17:00 +38°C° 0 mm 7 mps 714 mmHg 21%
    18:00 +37°C° 0 mm 8 mps 714 mmHg 21%
    19:00 +35°C° 0 mm 8 mps 715 mmHg 21%
    20:00 +33°C° 0 mm 9 mps 715 mmHg 21%
    21:00 +31°C° 0 mm 10 mps 715 mmHg 21%
    22:00 +29°C° 0 mm 10 mps 715 mmHg 21%
    23:00 +28°C° 0 mm 10 mps 715 mmHg 21%

    14 December, Friday

    Time Temperature Precipitation Wind Pressure Humidity
    00:00 +27°C° 0 mm 10 mps 715 mmHg 21%
    01:00 +24°C° 0 mm 9 mps 715 mmHg 24%
    02:00 +23°C° 0 mm 9 mps 715 mmHg 27%
    03:00 +22°C° 0 mm 8 mps 715 mmHg 30%
    04:00 +21°C° 0 mm 8 mps 715 mmHg 32%
    05:00 +20°C° 0 mm 8 mps 716 mmHg 34%
    06:00 +18°C° 0 mm 7 mps 716 mmHg 36%
    07:00 +20°C° 0 mm 7 mps 717 mmHg 32%
    08:00 +22°C° 0 mm 7 mps 717 mmHg 28%
    09:00 +23°C° 0 mm 7 mps 717 mmHg 24%
    10:00 +26°C° 0 mm 6 mps 717 mmHg 20%
    11:00 +28°C° 0 mm 6 mps 716 mmHg 16%
    12:00 +29°C° 0 mm 5 mps 716 mmHg 12%
    13:00 +30°C° 0 mm 5 mps 715 mmHg 11%
    14:00 +32°C° 0 mm 5 mps 715 mmHg 10%
    15:00 +33°C° 0 mm 5 mps 714 mmHg 9%
    16:00 +33°C° 0 mm 5 mps 714 mmHg 9%
    17:00 +33°C° 0 mm 5 mps 714 mmHg 9%
    18:00 +33°C° 0 mm 5 mps 714 mmHg 10%
    19:00 +30°C° 0 mm 5 mps 715 mmHg 11%
    20:00 +29°C° 0 mm 5 mps 715 mmHg 13%
    21:00 +28°C° 0 mm 5 mps 715 mmHg 14%
    22:00 +27°C° 0 mm 5 mps 715 mmHg 16%
    23:00 +26°C° 0 mm 5 mps 715 mmHg 17%

    15 December, Saturday

    Time Temperature Precipitation Wind Pressure Humidity
    00:00 +25°C° 0 mm 5 mps 714 mmHg 18%
    01:00 +23°C° 0 mm 5 mps 714 mmHg 20%
    02:00 +23°C° 0 mm 5 mps 713 mmHg 21%
    03:00 +22°C° 0 mm 4 mps 713 mmHg 23%
    04:00 +21°C° 0 mm 4 mps 713 mmHg 24%
    05:00 +21°C° 0 mm 4 mps 714 mmHg 26%
    06:00 +21°C° 0 mm 4 mps 714 mmHg 27%
    07:00 +22°C° 0 mm 4 mps 714 mmHg 25%
    08:00 +25°C° 0 mm 5 mps 715 mmHg 24%
    09:00 +26°C° 0 mm 5 mps 715 mmHg 22%
    10:00 +28°C° 0 mm 4 mps 715 mmHg 19%
    11:00 +29°C° 0 mm 4 mps 714 mmHg 17%
    12:00 +32°C° 0 mm 4 mps 714 mmHg 14%
    13:00 +33°C° 0 mm 4 mps 713 mmHg 13%
    14:00 +34°C° 0 mm 4 mps 713 mmHg 12%
    15:00 +35°C° 0 mm 3 mps 712 mmHg 10%
    16:00 +35°C° 0 mm 4 mps 712 mmHg 10%
    17:00 +35°C° 0 mm 4 mps 712 mmHg 10%
    18:00 +35°C° 0 mm 4 mps 712 mmHg 10%
    19:00 +34°C° 0 mm 4 mps 712 mmHg 11%
    20:00 +32°C° 0 mm 5 mps 713 mmHg 12%
    21:00 +30°C° 0 mm 5 mps 713 mmHg 13%
    22:00 +29°C° 0 mm 5 mps 713 mmHg 14%
    23:00 +28°C° 0 mm 5 mps 713 mmHg 14%
    Show more